(410) Chloris
ephemeris date magn radius delta ra dec elong phase
Today1 Jul 202514.63.150 AU3.893 AU04h04m+14°13'37.6°11.4°
Opposition5 Dec 202513.23.338 AU2.357 AU04h54m+16°24'173.8°1.8°
(410) Chloris - 2025-07-01
astro.vanbuitenen.nl


 
-1 year
-1 month
-1 day
Now
+1 day
+1 month
+1 year

The interactive orbit chart above shows the body's path through the solar system and its position at the given date. Green and blue lines are shown perpendicular to the ecliptic plane: Green if the path is above the ecliptic plane, blue if it is below. (Left-click and drag to rotate the view; Right-click and drag to move the view; Use scroll wheel to zoom in our out.)

The orbital elements of Chloris are:

            e (Eccentricity)                : 0.2405490
            a (Semimajor axis)              : 2.7244982
            i (Inclination)                 : 10.96367
            Ω (Longitude of ascending node) : 96.91422
            ω (Argument of perihelion)      : 172.79432
            M (Mean anomaly)                : 107.53029
            Epoch                           : 2025 May 05

            L (Longitude of perihelion)     : 89.83871
            B (Latitude of perihelion)      : 1.36694
            P (Orbital period in years)     : 4.50            
        

The light curve chart below shows the estimated development of the minor planet's magnitude.


The all-sky chart below shows the path of the minor planet over the same period as the light curve. The current position is marked yellow.





The following chart shows the path of the minor planet in the next few days. The field of view is optimized for (~10x50) binoculars and finderscopes. A more printer-friendly version of the same chart can be found below.




Ephemerides:
Date       Time       RA (2000)    DEC (2000)    delta   radius  elong  phase   PA    magn
2025-07-01 00:00 UT   04 04 35.8   +14 13 17     3.893    3.150   37.6   11.4   250   14.6 
2025-07-01 01:37 UT   04 04 41.0   +14 13 33     3.893    3.150   37.7   11.4   250   14.6 
2025-07-02 00:00 UT   04 05 52.9   +14 17 04     3.886    3.152   38.3   11.5   251   14.6 
2025-07-03 00:00 UT   04 07 09.8   +14 20 48     3.879    3.153   38.9   11.7   251   14.6 
2025-07-04 00:00 UT   04 08 26.3   +14 24 27     3.872    3.155   39.5   11.8   251   14.6 
2025-07-05 00:00 UT   04 09 42.6   +14 28 03     3.865    3.157   40.1   12.0   252   14.6 
2025-07-06 00:00 UT   04 10 58.6   +14 31 36     3.858    3.158   40.8   12.1   252   14.6 
2025-07-07 00:00 UT   04 12 14.3   +14 35 04     3.850    3.160   41.4   12.3   252   14.6 
2025-07-08 00:00 UT   04 13 29.7   +14 38 29     3.842    3.162   42.0   12.4   252   14.6 
2025-07-09 00:00 UT   04 14 44.8   +14 41 50     3.835    3.163   42.7   12.6   253   14.6 
2025-07-10 00:00 UT   04 15 59.5   +14 45 08     3.827    3.165   43.3   12.7   253   14.6 
2025-07-11 00:00 UT   04 17 14.0   +14 48 22     3.819    3.166   43.9   12.9   253   14.6 
2025-07-12 00:00 UT   04 18 28.1   +14 51 32     3.811    3.168   44.6   13.0   254   14.6 
2025-07-13 00:00 UT   04 19 41.8   +14 54 38     3.802    3.170   45.2   13.2   254   14.6 
2025-07-14 00:00 UT   04 20 55.3   +14 57 41     3.794    3.171   45.9   13.3   254   14.6 
2025-07-15 00:00 UT   04 22 08.3   +15 00 41     3.785    3.173   46.5   13.4   254   14.6 
2025-07-16 00:00 UT   04 23 21.1   +15 03 37     3.777    3.174   47.2   13.6   255   14.6 
2025-07-17 00:00 UT   04 24 33.4   +15 06 29     3.768    3.176   47.8   13.7   255   14.6 
2025-07-18 00:00 UT   04 25 45.4   +15 09 18     3.759    3.177   48.5   13.9   255   14.6 
2025-07-19 00:00 UT   04 26 57.0   +15 12 03     3.750    3.179   49.1   14.0   255   14.6 
2025-07-20 00:00 UT   04 28 08.2   +15 14 44     3.741    3.180   49.8   14.1   256   14.6 
2025-07-21 00:00 UT   04 29 19.1   +15 17 22     3.731    3.182   50.4   14.2   256   14.6 
2025-07-22 00:00 UT   04 30 29.5   +15 19 57     3.722    3.184   51.1   14.4   256   14.6 
2025-07-23 00:00 UT   04 31 39.5   +15 22 28     3.712    3.185   51.7   14.5   256   14.6 
2025-07-24 00:00 UT   04 32 49.0   +15 24 55     3.703    3.187   52.4   14.6   256   14.6 
2025-07-25 00:00 UT   04 33 58.1   +15 27 19     3.693    3.188   53.1   14.8   257   14.6 
2025-07-26 00:00 UT   04 35 06.8   +15 29 40     3.683    3.190   53.7   14.9   257   14.6 
2025-07-27 00:00 UT   04 36 15.0   +15 31 57     3.673    3.191   54.4   15.0   257   14.6 
2025-07-28 00:00 UT   04 37 22.8   +15 34 11     3.663    3.193   55.1   15.1   257   14.6 
2025-07-29 00:00 UT   04 38 30.1   +15 36 21     3.653    3.194   55.8   15.2   258   14.6 


    Terminology:
            
    delta:  distance between minor planet and earth in AU
    radius: distance between minor planet and sun in AU
    magn:   magnitude (brightness) estimate    
    ra:     right ascension in hours (24h = 360deg)
    dec:    declination in degrees
    elong:  elongation in degrees (angle sun-earth-minor planet)    
    phase:  phase angle in degrees (angle sun-minor planet-earth)        
    AU:     Astronomical Unit (mean distance between earth and sun: 149597870.7 km
    

Orbital elements provided by the MPC (Minor Planet Center).
Calculations by a modified version of AAPlus, a C# implementation of the AA+ project by PJ Naughter from the algorithms presented in the book "Astronomical Algorithms" by Jean Meeus.
NGC2000 dso catalog and star labels from VizieR as provided by the Strasbourg astronomical Data Center.
Tycho2 catalog from the ESO archive.